Location: Houhaj�rvi
(61.2667°N, 23.0167°E)
Time: 18:51:02
(UTC+00:00)

RESURS DK-1 - Pass Details

Date: 13 December 2019
Orbit: 554 x 564 km, 69.9° (Epoch: 17 January)

Event Time Altitude Azimuth Distance (km) Brightness Sun altitude
Rises 14:47:54 0° 193° (SSW) 2,732 6.6 -9.7°
Reaches altitude 10° 14:50:12 10° 185° (S) 1,842 5.5 -9.9°
Maximum altitude 14:53:57 35° 119° (ESE) 922 3.2 -10.3°
Enters shadow 14:56:51 15° 60° (ENE) 1,549 3.9 -10.6°
